TimeEST,TemperatureF,Dew PointF,Humidity,Sea Level PressureIn,VisibilityMPH,Wind Direction,Wind SpeedMPH,Gust SpeedMPH,PrecipitationIn,Events,Conditions,WindDirDegrees,DateUTC
12:51 AM,37.0,37.0,100,30.12,10.0,North,10.4,19.6,N/A,,Overcast,350,2014-03-05 05:51:00
1:20 AM,37.0,37.0,100,30.11,10.0,NNW,11.5,18.4,N/A,,Overcast,330,2014-03-05 06:20:00
1:51 AM,37.0,37.0,100,30.11,10.0,NNW,9.2,19.6,N/A,,Overcast,330,2014-03-05 06:51:00
2:17 AM,37.0,37.0,100,30.12,10.0,NNW,9.2,-,N/A,,Overcast,330,2014-03-05 07:17:00
2:28 AM,37.0,36.0,96,30.12,10.0,NW,10.4,20.7,N/A,,Overcast,320,2014-03-05 07:28:00
2:51 AM,37.0,36.0,96,30.10,10.0,NNW,9.2,-,N/A,,Overcast,330,2014-03-05 07:51:00
3:28 AM,37.0,37.0,100,30.09,10.0,NNW,10.4,18.4,N/A,,Overcast,330,2014-03-05 08:28:00
3:51 AM,37.0,37.0,100,30.09,10.0,NNW,8.1,-,N/A,,Overcast,330,2014-03-05 08:51:00
4:51 AM,37.0,36.0,96,30.09,8.0,NNW,8.1,17.3,N/A,,Overcast,340,2014-03-05 09:51:00
5:51 AM,37.0,36.0,96,30.12,7.0,Variable,6.9,-,0.00,Rain,Light Rain,0,2014-03-05 10:51:00
6:51 AM,37.0,37.0,100,30.15,9.0,NNW,8.1,-,0.00,Rain,Light Rain,340,2014-03-05 11:51:00
7:51 AM,37.9,37.0,97,30.18,5.0,North,5.8,-,0.04,Rain,Light Rain,350,2014-03-05 12:51:00
8:51 AM,37.9,37.0,97,30.18,4.0,Variable,4.6,-,0.05,Rain,Light Rain,0,2014-03-05 13:51:00
9:51 AM,37.9,37.9,100,30.17,8.0,North,6.9,-,0.04,Rain,Light Rain,360,2014-03-05 14:51:00
10:51 AM,39.9,37.9,93,30.15,10.0,Variable,5.8,-,0.00,,Overcast,0,2014-03-05 15:51:00
11:51 AM,41.0,39.0,93,30.13,10.0,North,9.2,17.3,N/A,,Overcast,10,2014-03-05 16:51:00
12:51 PM,39.9,39.0,97,30.12,8.0,Variable,5.8,18.4,N/A,,Overcast,0,2014-03-05 17:51:00
1:51 PM,41.0,39.0,93,30.10,10.0,Variable,4.6,20.7,N/A,,Overcast,0,2014-03-05 18:51:00
2:38 PM,42.1,39.0,89,30.11,10.0,North,8.1,20.7,N/A,,Overcast,10,2014-03-05 19:38:00
2:51 PM,42.1,39.0,89,30.12,10.0,North,11.5,18.4,N/A,,Overcast,10,2014-03-05 19:51:00
3:16 PM,42.1,39.0,89,30.11,10.0,North,8.1,18.4,N/A,,Overcast,10,2014-03-05 20:16:00
3:51 PM,41.0,39.0,93,30.15,10.0,North,8.1,20.7,N/A,,Overcast,360,2014-03-05 20:51:00
4:51 PM,39.9,37.9,93,30.14,10.0,North,11.5,19.6,N/A,,Overcast,10,2014-03-05 21:51:00
5:51 PM,39.9,37.9,93,30.14,10.0,NNE,12.7,18.4,0.00,Rain,Light Rain,20,2014-03-05 22:51:00
6:34 PM,39.9,37.0,89,30.15,10.0,NNE,11.5,24.2,0.00,,Overcast,20,2014-03-05 23:34:00
6:51 PM,39.9,37.9,93,30.15,10.0,NNE,9.2,21.9,0.00,,Overcast,30,2014-03-05 23:51:00
7:07 PM,39.9,37.9,93,30.16,10.0,NNE,11.5,19.6,N/A,,Overcast,20,2014-03-06 00:07:00
7:51 PM,39.9,36.0,86,30.19,10.0,NNE,12.7,23.0,N/A,,Overcast,20,2014-03-06 00:51:00
8:51 PM,39.9,36.0,86,30.17,10.0,NNE,12.7,25.3,N/A,,Overcast,20,2014-03-06 01:51:00
9:51 PM,39.9,37.0,89,30.19,10.0,NNE,13.8,24.2,N/A,,Overcast,20,2014-03-06 02:51:00
10:51 PM,39.9,36.0,86,30.21,10.0,North,12.7,25.3,N/A,,Overcast,10,2014-03-06 03:51:00
11:51 PM,39.9,34.0,79,30.22,10.0,NNE,10.4,24.2,N/A,,Overcast,20,2014-03-06 04:51:00